ONEWEB-0158

Last updated on Sun Apr 25 2021 00:02:03 GMT+0000 (Coordinated Universal Time)

1 48054U 21025N 21114.58336806 -.01083399 00000-0 -42178-1 0 9997 2 48054 87.4238 339.3219 0008095 150.2190 213.1112 15.28891111 1778

Satellite not in orbit